Powrót do katalogu

CZ-6A DEB

AktywnySSO
NORAD 54303·DEBRIS·🇨🇳 China

Wystrzelony Nov 11, 2022 z Taiyuan Satellite Launch Center

Loading…

Następne Przeloty (najbliższe 24 godziny)

TLE

ŚwieżeSource: Space-Track

Epoka: Sep 14, 2026, 10:56 UTC

1 54303U 22151AW  26257.45580767 -.00000064  00000-0 -11806-4 0  9992
2 54303  98.8609 257.3788 0047872  97.9173 262.7434 14.09122164196926

Śledź CZ-6A DEB w czasie rzeczywistym z AllMySat

Download on the App Store